Time,TemperatureF,DewpointF,PressureIn,WindDirection,WindDirectionDegrees,WindSpeedMPH,WindSpeedGustMPH,Humidity,HourlyPrecipIn,Conditions,Clouds,dailyrainin,SoftwareType,DateUTC
2013-03-13 00:08:00,42.2,41.0,29.73,WNW,290,4.0,9.0,95,0.00,,,0.00,weatherlink.com 1.10,2013-03-13 04:08:00,
2013-03-13 00:23:00,41.6,40.0,29.75,West,267,4.0,9.0,93,0.00,,,0.00,weatherlink.com 1.10,2013-03-13 04:23:00,
2013-03-13 00:38:00,40.7,39.0,29.75,WSW,248,0.0,9.0,92,0.00,,,0.00,weatherlink.com 1.10,2013-03-13 04:38:00,
2013-03-13 00:53:00,39.4,37.0,29.75,West,278,0.0,12.0,92,0.00,,,0.00,weatherlink.com 1.10,2013-03-13 04:53:00,
2013-03-13 01:08:00,39.3,38.0,29.75,WSW,255,2.0,7.0,93,0.00,,,0.00,weatherlink.com 1.10,2013-03-13 05:08:00,
2013-03-13 01:23:00,39.2,37.0,29.76,West,276,2.0,9.0,93,0.00,,,0.00,weatherlink.com 1.10,2013-03-13 05:23:00,
2013-03-13 01:38:00,38.6,37.0,29.75,West,276,6.0,11.0,93,0.00,,,0.00,weatherlink.com 1.10,2013-03-13 05:38:00,
2013-03-13 01:53:00,38.0,36.0,29.75,WNW,287,6.0,9.0,93,0.00,,,0.00,weatherlink.com 1.10,2013-03-13 05:53:00,
2013-03-13 02:08:00,37.5,35.0,29.75,NW,312,8.0,13.0,92,0.00,,,0.00,weatherlink.com 1.10,2013-03-13 06:08:00,
2013-03-13 02:23:00,37.0,35.0,29.76,WSW,257,2.0,13.0,91,0.00,,,0.00,weatherlink.com 1.10,2013-03-13 06:23:00,
2013-03-13 02:39:00,36.7,34.0,29.76,West,273,3.0,7.0,90,0.00,,,0.00,weatherlink.com 1.10,2013-03-13 06:39:00,
2013-03-13 02:54:00,36.4,34.0,29.75,West,260,5.0,9.0,91,0.00,,,0.00,weatherlink.com 1.10,2013-03-13 06:54:00,
2013-03-13 03:09:00,36.1,34.0,29.76,West,276,3.0,15.0,90,0.00,,,0.00,weatherlink.com 1.10,2013-03-13 07:09:00,
2013-03-13 03:24:00,36.0,33.0,29.76,WNW,283,10.0,12.0,90,0.00,,,0.00,weatherlink.com 1.10,2013-03-13 07:24:00,
2013-03-13 03:39:00,35.7,33.0,29.76,WSW,244,4.0,11.0,90,0.00,,,0.00,weatherlink.com 1.10,2013-03-13 07:39:00,
2013-03-13 03:54:00,35.5,33.0,29.75,NW,309,4.0,11.0,90,0.00,,,0.00,weatherlink.com 1.10,2013-03-13 07:54:00,
2013-03-13 04:09:00,35.5,33.0,29.75,West,276,3.0,12.0,90,0.00,,,0.00,weatherlink.com 1.10,2013-03-13 08:09:00,
2013-03-13 04:24:00,35.5,33.0,29.75,WNW,290,4.0,11.0,90,0.00,,,0.00,weatherlink.com 1.10,2013-03-13 08:24:00,
2013-03-13 04:39:00,35.2,32.0,29.75,SW,233,3.0,12.0,88,0.00,,,0.00,weatherlink.com 1.10,2013-03-13 08:39:00,
2013-03-13 04:54:00,35.2,32.0,29.75,WSW,238,3.0,12.0,87,0.00,,,0.00,weatherlink.com 1.10,2013-03-13 08:54:00,
2013-03-13 05:09:00,35.1,31.0,29.76,West,266,5.0,13.0,85,0.00,,,0.00,weatherlink.com 1.10,2013-03-13 09:09:00,
2013-03-13 05:24:00,35.0,31.0,29.76,WNW,293,5.0,16.0,84,0.00,,,0.00,weatherlink.com 1.10,2013-03-13 09:24:00,
2013-03-13 05:39:00,34.7,30.0,29.76,SSW,203,8.0,14.0,84,0.00,,,0.00,weatherlink.com 1.10,2013-03-13 09:39:00,
2013-03-13 05:54:00,34.4,30.0,29.77,WNW,298,4.0,12.0,85,0.00,,,0.00,weatherlink.com 1.10,2013-03-13 09:54:00,
2013-03-13 06:09:00,34.7,30.0,29.76,West,274,3.0,13.0,83,0.00,,,0.00,weatherlink.com 1.10,2013-03-13 10:09:00,
2013-03-13 06:24:00,34.3,30.0,29.76,West,281,0.0,12.0,84,0.00,,,0.00,weatherlink.com 1.10,2013-03-13 10:24:00,
2013-03-13 06:39:00,33.9,30.0,29.75,WNW,283,0.0,8.0,85,0.00,,,0.00,weatherlink.com 1.10,2013-03-13 10:39:00,
2013-03-13 06:54:00,34.0,30.0,29.75,SW,233,3.0,11.0,84,0.00,,,0.00,weatherlink.com 1.10,2013-03-13 10:54:00,
2013-03-13 07:09:00,34.3,30.0,29.75,West,262,6.0,14.0,84,0.00,,,0.00,weatherlink.com 1.10,2013-03-13 11:09:00,
2013-03-13 07:24:00,34.4,30.0,29.75,WNW,290,6.0,11.0,83,0.00,,,0.00,weatherlink.com 1.10,2013-03-13 11:24:00,
2013-03-13 07:39:00,34.5,30.0,29.75,West,271,3.0,14.0,84,0.00,,,0.00,weatherlink.com 1.10,2013-03-13 11:39:00,
2013-03-13 07:54:00,34.9,30.0,29.75,North,5,2.0,17.0,83,0.00,,,0.00,weatherlink.com 1.10,2013-03-13 11:54:00,
2013-03-13 08:09:00,35.5,31.0,29.75,WNW,290,1.0,9.0,83,0.00,,,0.00,weatherlink.com 1.10,2013-03-13 12:09:00,
2013-03-13 08:24:00,36.6,31.0,29.74,WNW,302,4.0,14.0,80,0.00,,,0.00,weatherlink.com 1.10,2013-03-13 12:24:00,
2013-03-13 08:39:00,37.4,31.0,29.74,WNW,282,4.0,15.0,78,0.00,,,0.00,weatherlink.com 1.10,2013-03-13 12:39:00,
2013-03-13 08:54:00,38.3,32.0,29.75,West,262,5.0,18.0,78,0.00,,,0.00,weatherlink.com 1.10,2013-03-13 12:54:00,
2013-03-13 09:09:00,38.6,31.0,29.75,WSW,238,4.0,15.0,75,0.00,,,0.00,weatherlink.com 1.10,2013-03-13 13:09:00,
2013-03-13 09:24:00,38.9,32.0,29.75,West,277,4.0,13.0,75,0.00,,,0.00,weatherlink.com 1.10,2013-03-13 13:24:00,
2013-03-13 09:39:00,39.3,32.0,29.74,West,280,7.0,16.0,75,0.00,,,0.00,weatherlink.com 1.10,2013-03-13 13:39:00,
2013-03-13 09:54:00,39.9,32.0,29.74,WNW,287,2.0,13.0,73,0.00,,,0.00,weatherlink.com 1.10,2013-03-13 13:54:00,
2013-03-13 10:09:00,40.5,32.0,29.74,WSW,245,2.0,13.0,71,0.00,,,0.00,weatherlink.com 1.10,2013-03-13 14:09:00,
2013-03-13 10:24:00,40.6,32.0,29.75,West,276,5.0,8.0,71,0.00,,,0.00,weatherlink.com 1.10,2013-03-13 14:24:00,
2013-03-13 10:39:00,41.8,32.0,29.74,West,262,5.0,8.0,69,0.00,,,0.00,weatherlink.com 1.10,2013-03-13 14:39:00,
2013-03-13 10:54:00,41.9,32.0,29.74,WSW,246,4.0,13.0,67,0.00,,,0.00,weatherlink.com 1.10,2013-03-13 14:54:00,
2013-03-13 11:09:00,41.9,31.0,29.74,WSW,238,2.0,13.0,65,0.00,,,0.00,weatherlink.com 1.10,2013-03-13 15:09:00,
2013-03-13 11:24:00,42.1,30.0,29.74,WSW,257,5.0,11.0,63,0.00,,,0.00,weatherlink.com 1.10,2013-03-13 15:24:00,
2013-03-13 11:39:00,42.9,31.0,29.74,NNW,338,7.0,13.0,63,0.00,,,0.00,weatherlink.com 1.10,2013-03-13 15:39:00,
2013-03-13 11:55:00,43.4,30.0,29.74,West,268,4.0,9.0,60,0.00,,,0.00,weatherlink.com 1.10,2013-03-13 15:55:00,
2013-03-13 12:25:00,42.6,28.0,29.74,WNW,287,6.0,14.0,57,0.00,,,0.00,weatherlink.com 1.10,2013-03-13 16:25:00,
2013-03-13 12:40:00,44.0,29.0,29.73,WNW,284,2.0,12.0,56,0.00,,,0.00,weatherlink.com 1.10,2013-03-13 16:40:00,
2013-03-13 12:55:00,44.2,28.0,29.73,West,259,6.0,13.0,54,0.00,,,0.00,weatherlink.com 1.10,2013-03-13 16:55:00,
2013-03-13 13:10:00,44.1,28.0,29.73,West,264,6.0,14.0,54,0.00,,,0.00,weatherlink.com 1.10,2013-03-13 17:10:00,
2013-03-13 13:25:00,43.2,28.0,29.73,WSW,253,2.0,16.0,56,0.00,,,0.00,weatherlink.com 1.10,2013-03-13 17:25:00,
2013-03-13 13:40:00,43.6,28.0,29.73,WSW,255,13.0,13.0,54,0.00,,,0.00,weatherlink.com 1.10,2013-03-13 17:40:00,
2013-03-13 13:55:00,43.8,27.0,29.72,SSE,163,2.0,15.0,51,0.00,,,0.00,weatherlink.com 1.10,2013-03-13 17:55:00,
2013-03-13 14:10:00,44.2,25.0,29.72,NW,312,3.0,15.0,48,0.00,,,0.00,weatherlink.com 1.10,2013-03-13 18:10:00,
2013-03-13 14:25:00,44.4,26.0,29.71,West,278,4.0,12.0,48,0.00,,,0.00,weatherlink.com 1.10,2013-03-13 18:25:00,
2013-03-13 14:40:00,44.9,25.0,29.70,NW,314,4.0,9.0,46,0.00,,,0.00,weatherlink.com 1.10,2013-03-13 18:40:00,
2013-03-13 14:55:00,45.8,24.0,29.70,West,266,3.0,9.0,42,0.00,,,0.00,weatherlink.com 1.10,2013-03-13 18:55:00,
2013-03-13 15:10:00,44.9,23.0,29.70,WNW,302,6.0,13.0,43,0.00,,,0.00,weatherlink.com 1.10,2013-03-13 19:10:00,
2013-03-13 15:25:00,45.3,23.0,29.70,WSW,250,5.0,14.0,42,0.00,,,0.00,weatherlink.com 1.10,2013-03-13 19:25:00,
2013-03-13 15:40:00,44.7,23.0,29.69,SSW,203,2.0,12.0,42,0.00,,,0.00,weatherlink.com 1.10,2013-03-13 19:40:00,
2013-03-13 15:55:00,44.6,21.0,29.70,West,263,6.0,13.0,40,0.00,,,0.00,weatherlink.com 1.10,2013-03-13 19:55:00,
2013-03-13 16:10:00,44.4,21.0,29.70,SW,231,3.0,12.0,40,0.00,,,0.00,weatherlink.com 1.10,2013-03-13 20:10:00,
2013-03-13 16:25:00,44.3,22.0,29.70,SW,226,5.0,15.0,41,0.00,,,0.00,weatherlink.com 1.10,2013-03-13 20:25:00,
2013-03-13 16:40:00,44.5,23.0,29.70,NW,318,6.0,17.0,42,0.00,,,0.00,weatherlink.com 1.10,2013-03-13 20:40:00,
2013-03-13 16:55:00,44.4,22.0,29.70,SW,214,7.0,14.0,41,0.00,,,0.00,weatherlink.com 1.10,2013-03-13 20:55:00,
2013-03-13 17:10:00,44.1,20.0,29.70,SW,235,5.0,13.0,39,0.00,,,0.00,weatherlink.com 1.10,2013-03-13 21:10:00,
2013-03-13 17:25:00,43.7,21.0,29.71,West,281,3.0,17.0,41,0.00,,,0.00,weatherlink.com 1.10,2013-03-13 21:25:00,
2013-03-13 17:40:00,42.9,21.0,29.71,SW,228,7.0,12.0,41,0.00,,,0.00,weatherlink.com 1.10,2013-03-13 21:40:00,
2013-03-13 17:55:00,42.0,21.0,29.71,WNW,297,4.0,14.0,44,0.00,,,0.00,weatherlink.com 1.10,2013-03-13 21:55:00,
2013-03-13 18:10:00,41.4,21.0,29.72,WSW,250,5.0,9.0,45,0.00,,,0.00,weatherlink.com 1.10,2013-03-13 22:10:00,
2013-03-13 18:25:00,40.0,21.0,29.72,West,276,3.0,14.0,47,0.00,,,0.00,weatherlink.com 1.10,2013-03-13 22:25:00,
2013-03-13 18:40:00,39.3,20.0,29.73,WNW,284,5.0,11.0,47,0.00,,,0.00,weatherlink.com 1.10,2013-03-13 22:40:00,
2013-03-13 18:55:00,38.5,21.0,29.73,West,271,2.0,10.0,49,0.00,,,0.00,weatherlink.com 1.10,2013-03-13 22:55:00,
2013-03-13 19:13:00,37.7,21.0,29.73,WNW,285,0.0,6.0,51,0.00,,,0.00,weatherlink.com 1.10,2013-03-13 23:13:00,
2013-03-13 19:25:00,36.9,21.0,29.73,West,276,2.0,6.0,52,0.00,,,0.00,weatherlink.com 1.10,2013-03-13 23:25:00,
2013-03-13 19:40:00,36.2,21.0,29.73,SW,231,1.0,5.0,54,0.00,,,0.00,weatherlink.com 1.10,2013-03-13 23:40:00,
2013-03-13 19:55:00,36.0,20.0,29.74,WNW,290,2.0,6.0,53,0.00,,,0.00,weatherlink.com 1.10,2013-03-13 23:55:00,
2013-03-13 20:10:00,35.6,20.0,29.74,SW,232,2.0,5.0,54,0.00,,,0.00,weatherlink.com 1.10,2013-03-14 00:10:00,
2013-03-13 20:25:00,34.8,21.0,29.75,West,274,1.0,6.0,57,0.00,,,0.00,weatherlink.com 1.10,2013-03-14 00:25:00,
2013-03-13 20:40:00,33.9,21.0,29.75,West,274,0.0,4.0,60,0.00,,,0.00,weatherlink.com 1.10,2013-03-14 00:40:00,
2013-03-13 20:55:00,32.2,22.0,29.76,WSW,253,3.0,3.0,67,0.00,,,0.00,weatherlink.com 1.10,2013-03-14 00:55:00,
2013-03-13 21:10:00,32.3,21.0,29.76,West,263,1.0,4.0,64,0.00,,,0.00,weatherlink.com 1.10,2013-03-14 01:10:00,
2013-03-13 21:25:00,32.7,22.0,29.76,West,272,3.0,4.0,65,0.00,,,0.00,weatherlink.com 1.10,2013-03-14 01:25:00,
2013-03-13 21:40:00,32.6,21.0,29.76,West,274,3.0,3.0,62,0.00,,,0.00,weatherlink.com 1.10,2013-03-14 01:40:00,
2013-03-13 21:55:00,32.6,20.0,29.76,WSW,253,1.0,4.0,61,0.00,,,0.00,weatherlink.com 1.10,2013-03-14 01:55:00,
2013-03-13 22:10:00,31.8,23.0,29.77,NW,323,0.0,5.0,69,0.00,,,0.00,weatherlink.com 1.10,2013-03-14 02:10:00,
2013-03-13 22:25:00,29.3,22.0,29.77,West,266,0.0,1.0,74,0.00,,,0.00,weatherlink.com 1.10,2013-03-14 02:25:00,
2013-03-13 22:40:00,28.5,22.0,29.77,WNW,288,1.0,4.0,75,0.00,,,0.00,weatherlink.com 1.10,2013-03-14 02:40:00,
2013-03-13 22:56:00,27.8,22.0,29.77,NNW,330,0.0,1.0,79,0.00,,,0.00,weatherlink.com 1.10,2013-03-14 02:56:00,
2013-03-13 23:11:00,27.3,22.0,29.76,NNW,330,0.0,0.0,81,0.00,,,0.00,weatherlink.com 1.10,2013-03-14 03:11:00,
2013-03-13 23:41:00,30.7,21.0,29.76,WNW,293,0.0,7.0,68,0.00,,,0.00,weatherlink.com 1.10,2013-03-14 03:41:00,
2013-03-13 23:56:00,30.8,21.0,29.76,WNW,288,1.0,4.0,67,0.00,,,0.00,weatherlink.com 1.10,2013-03-14 03:56:00,